Retour au catalogue

METEOR 3-6

ActifMétéoPO
NORAD 22969·PAYLOAD·🇷🇺 Russia

Lancé Jan 25, 1994 depuis Plesetsk Cosmodrome

Loading…

Prochains Passages (prochaines 24 heures)

TLE

FraisSource: Space-Track

Époque: Sep 14, 2026, 06:37 UTC

1 22969U 94003A   26257.27634163  .00000150  00000-0  35761-3 0  9999
2 22969  82.5654  24.3775 0014647 349.5775  10.5042 13.17064207568967

Suivez METEOR 3-6 en temps réel avec AllMySat

Download on the App Store